Regional Weather Roundup
Issued by NWS

Home | Current Version | Previous Version | Graphics & Text | Print | Product List | Glossary On
Versions: 1 2 3 4 5 6 7 8 9 10 11 12 13 14 15 16 17 18 19 20 21 22 23 24 25 26 27 28 29 30 31 32 33 34 35 36 37 38 39 40 41 42 43 44 45 46 47 48 49 50
000
ASUS45 KCYS 061510
RWRWY

WYOMING REGIONAL WEATHER ROUNDUP
NATIONAL WEATHER SERVICE CHEYENNE WY
900 AM MDT MON JUL 06 2015

NOTE:  "FAIR" INDICATES FEW OR NO CLOUDS BELOW 12,000 FEET
WITH NO SIGNIFICANT WEATHER AND/OR OBSTRUCTIONS TO VISIBILITY.

WYZ001-061600-
YELLOWSTONE NATIONAL PARK

CITY           SKY/WX    TMP DP  RH WIND       PRES   REMARKS
LK YELLOWSTONE   N/A     51  47  86 CALM      30.39R
W YELLOWSTONE  NOT AVBL

$$
WYZ002>013-054>058-071-098>099-061600-
NORTHERN WYOMING

CITY           SKY/WX    TMP DP  RH WIND       PRES   REMARKS
JACKSON        FAIR      55  52  88 CALM      30.31S
CODY           CLOUDY    54  48  82 CALM      30.30S
GREYBULL       FAIR      59  49  69 N5        30.26R
WORLAND        CLOUDY    59  54  83 NE5       30.27S HAZE
SHERIDAN       LGT RAIN  54  52  93 N7        30.29R FOG
BUFFALO        CLOUDY    52  51  97 NE5       30.31R FOG
GILLETTE       CLOUDY    56  50  80 N7        30.28S
HULETT         CLOUDY    55  52  88 N7        30.29R
NEWCASTLE      FAIR      59  48  67 N7        30.26R

$$
WYZ014>020-022>026-101>103-061600-
CENTRAL WYOMING

CITY           SKY/WX    TMP DP  RH WIND       PRES   REMARKS
BIG PINEY      CLOUDY    59  51  75 S5        30.33S
PINEDALE       CLOUDY    55  52  88 S9        30.35R
DUBOIS         PTSUNNY   54  50  87 SE10      30.34S
LANDER         CLOUDY    57  53  86 E5        30.30R
RIVERTON       CLOUDY    56  52  86 E7        30.30R
CASPER         LGT RAIN  54  51  90 NE8       30.30R FOG
DOUGLAS        CLOUDY    56  53  90 N6        30.30R FOG

$$
WYZ021-027>030-104>119-061600-
SOUTHERN WYOMING

CITY           SKY/WX    TMP DP  RH WIND       PRES   REMARKS
EVANSTON       FAIR      60  53  77 NE9       30.32R
KEMMERER       CLOUDY    59  50  72 E5        30.35S
FORT BRIDGER   CLOUDY    57  57 100 N3        30.35S
ROCK SPRINGS   CLOUDY    59  52  77 E9        30.33R
DIXON          CLOUDY    60  55  81 CALM      30.32S
RAWLINS        CLOUDY    56  52  86 NE8       30.33R
SARATOGA       CLOUDY    55  54  94 NW7       30.33R
LARAMIE        CLOUDY    54  51  90 NW3       30.33R
CHEYENNE       CLOUDY    56  54  93 NE10      30.29R FOG
TORRINGTON     CLOUDY    59  54  83 NE9       30.24R HAZE
PINE BLUFFS    CLOUDY    57  55  94 N15G21    30.26R

$$



USA.gov is the U.S. government's official web portal to all federal, state and local government web resources and services.